Time,TemperatureF,DewpointF,PressureIn,WindDirection,WindDirectionDegrees,WindSpeedMPH,WindSpeedGustMPH,Humidity,HourlyPrecipIn,Conditions,Clouds,dailyrainin,SoftwareType,DateUTC
2013-05-24 00:05:00,68.0,56.7,29.89,WNW,292,2.0,6.0,67,0.00,,OVC095,0.00,VWS V14.01,2013-05-24 04:05:00,
2013-05-24 00:10:00,67.6,57.5,29.89,SSW,200,0.0,0.0,70,0.00,,OVC095,0.00,VWS V14.01,2013-05-24 04:10:00,
2013-05-24 00:17:00,67.3,57.6,29.90,WNW,292,0.0,1.0,71,0.00,,OVC095,0.00,VWS V14.01,2013-05-24 04:17:00,
2013-05-24 00:22:00,67.3,56.4,29.90,NW,319,4.0,6.0,68,0.00,,BKN095,0.00,VWS V14.01,2013-05-24 04:22:00,
2013-05-24 00:27:00,67.3,56.4,29.90,NW,315,5.0,8.0,68,0.00,,BKN095,0.00,VWS V14.01,2013-05-24 04:27:00,
2013-05-24 00:32:00,67.3,56.8,29.90,WNW,302,4.0,4.0,69,0.00,,BKN095,0.00,VWS V14.01,2013-05-24 04:32:00,
2013-05-24 00:37:00,67.2,56.3,29.90,NW,319,1.0,4.0,68,0.00,,BKN095,0.00,VWS V14.01,2013-05-24 04:37:00,
2013-05-24 00:42:00,67.1,56.2,29.90,NW,312,2.0,4.0,68,0.00,,OVC095,0.00,VWS V14.01,2013-05-24 04:42:00,
2013-05-24 00:47:00,66.9,56.0,29.90,WNW,290,2.0,2.0,68,0.00,,OVC095,0.00,VWS V14.01,2013-05-24 04:47:00,
2013-05-24 00:52:00,66.7,56.6,29.90,NW,305,0.0,0.0,70,0.00,,OVC095,0.00,VWS V14.01,2013-05-24 04:52:00,
2013-05-24 00:57:00,66.4,57.9,29.90,NNE,19,1.0,1.0,74,0.00,,OVC095,0.00,VWS V14.01,2013-05-24 04:57:00,
2013-05-24 01:02:00,65.7,57.2,29.90,NE,47,0.0,0.0,74,0.00,,BKN095,0.00,VWS V14.01,2013-05-24 05:02:00,
2013-05-24 01:07:00,65.4,57.3,29.89,NE,46,1.0,1.0,75,0.00,,BKN095,0.00,VWS V14.01,2013-05-24 05:07:00,
2013-05-24 01:12:00,65.0,58.3,29.89,NE,45,0.0,0.0,79,0.00,,BKN095,0.00,VWS V14.01,2013-05-24 05:12:00,
2013-05-24 01:17:00,64.8,57.1,29.90,NNE,12,1.0,1.0,76,0.00,,BKN095,0.00,VWS V14.01,2013-05-24 05:17:00,
2013-05-24 01:22:00,64.9,57.5,29.90,NW,314,0.0,0.0,77,0.00,,BKN095,0.00,VWS V14.01,2013-05-24 05:22:00,
2013-05-24 01:27:00,64.9,57.5,29.90,NW,313,0.0,0.0,77,0.00,,BKN095,0.00,VWS V14.01,2013-05-24 05:27:00,
2013-05-24 01:32:00,64.9,58.6,29.90,NW,314,0.0,0.0,80,0.00,,BKN095,0.00,VWS V14.01,2013-05-24 05:32:00,
2013-05-24 01:37:00,64.6,58.0,29.89,NW,314,0.0,0.0,79,0.00,,BKN095,0.00,VWS V14.01,2013-05-24 05:37:00,
2013-05-24 01:42:00,64.3,58.3,29.89,NW,314,0.0,0.0,81,0.00,,BKN095,0.00,VWS V14.01,2013-05-24 05:42:00,
2013-05-24 01:48:00,64.0,58.7,29.89,NW,313,0.0,0.0,83,0.00,,BKN095,0.00,VWS V14.01,2013-05-24 05:48:00,
2013-05-24 01:53:00,63.7,58.5,29.89,NNW,343,1.0,2.0,83,0.00,,BKN095,0.00,VWS V14.01,2013-05-24 05:53:00,
2013-05-24 01:58:00,63.8,55.7,29.89,NW,324,2.0,3.0,75,0.00,,BKN095,0.00,VWS V14.01,2013-05-24 05:58:00,
2013-05-24 02:03:00,64.2,54.2,29.89,NW,308,3.0,5.0,70,0.00,,BKN095,0.00,VWS V14.01,2013-05-24 06:03:00,
2013-05-24 02:08:00,64.3,54.3,29.88,NW,305,2.0,3.0,70,0.00,,BKN095,0.00,VWS V14.01,2013-05-24 06:08:00,
2013-05-24 02:13:00,64.3,53.9,29.88,NW,305,2.0,2.0,69,0.00,,BKN095,0.00,VWS V14.01,2013-05-24 06:13:00,
2013-05-24 02:18:00,64.3,53.5,29.89,NW,307,2.0,4.0,68,0.00,,BKN095,0.00,VWS V14.01,2013-05-24 06:18:00,
2013-05-24 02:23:00,64.0,53.6,29.89,NW,322,6.0,6.0,69,0.00,,SCT095,0.00,VWS V14.01,2013-05-24 06:23:00,
2013-05-24 02:28:00,64.2,53.0,29.89,NW,319,2.0,8.0,67,0.00,,SCT095,0.00,VWS V14.01,2013-05-24 06:28:00,
2013-05-24 02:33:00,64.2,53.0,29.88,WNW,287,8.0,8.0,67,0.00,,SCT095,0.00,VWS V14.01,2013-05-24 06:33:00,
2013-05-24 02:38:00,64.2,53.0,29.88,WNW,302,3.0,6.0,67,0.00,,SCT095,0.00,VWS V14.01,2013-05-24 06:38:00,
2013-05-24 02:43:00,64.0,52.8,29.88,NW,305,3.0,5.0,67,0.00,,CLR,0.00,VWS V14.01,2013-05-24 06:43:00,
2013-05-24 02:48:00,63.7,53.3,29.88,SW,233,1.0,2.0,69,0.00,,CLR,0.00,VWS V14.01,2013-05-24 06:48:00,
2013-05-24 02:53:00,63.2,53.3,29.88,WNW,302,0.0,1.0,70,0.00,,CLR,0.00,VWS V14.01,2013-05-24 06:53:00,
2013-05-24 02:58:00,62.7,52.8,29.88,NW,313,1.0,4.0,70,0.00,,CLR,0.00,VWS V14.01,2013-05-24 06:58:00,
2013-05-24 03:03:00,62.7,52.8,29.88,NW,318,1.0,5.0,70,0.00,,CLR,0.00,VWS V14.01,2013-05-24 07:03:00,
2013-05-24 03:08:00,62.8,52.5,29.88,NW,322,2.0,4.0,69,0.00,,CLR,0.00,VWS V14.01,2013-05-24 07:08:00,
2013-05-24 03:13:00,62.8,52.5,29.88,WNW,302,4.0,7.0,69,0.00,,CLR,0.00,VWS V14.01,2013-05-24 07:13:00,
2013-05-24 03:18:00,62.8,52.5,29.88,NW,307,1.0,5.0,69,0.00,,CLR,0.00,VWS V14.01,2013-05-24 07:18:00,
2013-05-24 03:23:00,62.7,52.4,29.88,WNW,288,3.0,6.0,69,0.00,,CLR,0.00,VWS V14.01,2013-05-24 07:23:00,
2013-05-24 03:28:00,62.7,52.4,29.88,NW,305,1.0,3.0,69,0.00,,CLR,0.00,VWS V14.01,2013-05-24 07:28:00,
2013-05-24 03:33:00,62.7,52.4,29.88,NW,314,0.0,3.0,69,0.00,,CLR,0.00,VWS V14.01,2013-05-24 07:33:00,
2013-05-24 03:38:00,62.5,52.2,29.88,NNW,336,1.0,3.0,69,0.00,,CLR,0.00,VWS V14.01,2013-05-24 07:38:00,
2013-05-24 03:43:00,62.4,52.5,29.89,WNW,294,0.0,1.0,70,0.00,,CLR,0.00,VWS V14.01,2013-05-24 07:43:00,
2013-05-24 03:48:00,62.1,52.2,29.89,NNW,342,1.0,3.0,70,0.00,,CLR,0.00,VWS V14.01,2013-05-24 07:48:00,
2013-05-24 03:53:00,61.9,52.4,29.88,WNW,295,2.0,2.0,71,0.00,,CLR,0.00,VWS V14.01,2013-05-24 07:53:00,
2013-05-24 03:58:00,61.7,52.2,29.88,NW,322,1.0,3.0,71,0.00,,CLR,0.00,VWS V14.01,2013-05-24 07:58:00,
2013-05-24 04:03:00,61.3,52.6,29.88,NNW,328,1.0,2.0,73,0.00,,CLR,0.00,VWS V14.01,2013-05-24 08:03:00,
2013-05-24 04:08:00,61.0,52.3,29.88,SW,228,1.0,2.0,73,0.00,,CLR,0.00,VWS V14.01,2013-05-24 08:08:00,
2013-05-24 04:13:00,60.5,52.9,29.88,SW,231,1.0,1.0,76,0.00,,CLR,0.00,VWS V14.01,2013-05-24 08:13:00,
2013-05-24 04:18:00,59.8,52.2,29.88,SSE,166,0.0,0.0,76,0.00,,CLR,0.00,VWS V14.01,2013-05-24 08:18:00,
2013-05-24 04:23:00,59.5,52.3,29.88,SW,235,0.0,1.0,77,0.00,,CLR,0.00,VWS V14.01,2013-05-24 08:23:00,
2013-05-24 04:28:00,59.1,52.6,29.88,WSW,238,0.0,0.0,79,0.00,,CLR,0.00,VWS V14.01,2013-05-24 08:28:00,
2013-05-24 04:33:00,58.7,52.9,29.88,SW,226,0.0,1.0,81,0.00,,CLR,0.00,VWS V14.01,2013-05-24 08:33:00,
2013-05-24 04:38:00,58.2,52.7,29.89,SW,231,0.0,0.0,82,0.00,,CLR,0.00,VWS V14.01,2013-05-24 08:38:00,
2013-05-24 04:43:00,58.0,53.2,29.89,SW,233,0.0,0.0,84,0.00,,CLR,0.00,VWS V14.01,2013-05-24 08:43:00,
2013-05-24 04:48:00,57.5,53.3,29.89,North,357,0.0,1.0,86,0.00,,CLR,0.00,VWS V14.01,2013-05-24 08:48:00,
2013-05-24 04:53:00,57.4,52.9,29.89,WNW,302,0.0,1.0,85,0.00,,CLR,0.00,VWS V14.01,2013-05-24 08:53:00,
2013-05-24 04:58:00,57.2,53.1,29.89,North,359,0.0,0.0,86,0.00,,CLR,0.00,VWS V14.01,2013-05-24 08:58:00,
2013-05-24 05:03:00,56.8,52.7,29.89,NNE,18,0.0,0.0,86,0.00,,CLR,0.00,VWS V14.01,2013-05-24 09:03:00,
2013-05-24 05:08:00,56.4,52.9,29.89,NNE,18,0.0,0.0,88,0.00,,CLR,0.00,VWS V14.01,2013-05-24 09:08:00,
2013-05-24 05:13:00,56.0,52.5,29.89,NNE,18,0.0,0.0,88,0.00,,CLR,0.00,VWS V14.01,2013-05-24 09:13:00,
2013-05-24 05:18:00,55.7,52.5,29.90,SSE,166,0.0,0.0,89,0.00,,CLR,0.00,VWS V14.01,2013-05-24 09:18:00,
2013-05-24 05:23:00,55.5,52.6,29.90,SW,235,1.0,2.0,90,0.00,,CLR,0.00,VWS V14.01,2013-05-24 09:23:00,
2013-05-24 05:28:00,55.5,52.6,29.90,NE,38,0.0,2.0,90,0.00,,CLR,0.00,VWS V14.01,2013-05-24 09:28:00,
2013-05-24 05:33:00,55.3,52.7,29.90,NE,38,0.0,0.0,91,0.00,,CLR,0.00,VWS V14.01,2013-05-24 09:33:00,
2013-05-24 05:38:00,55.2,52.6,29.90,SSW,212,0.0,0.0,91,0.00,,CLR,0.00,VWS V14.01,2013-05-24 09:38:00,
2013-05-24 05:43:00,55.1,52.5,29.90,SSE,166,0.0,0.0,91,0.00,,CLR,0.00,VWS V14.01,2013-05-24 09:43:00,
2013-05-24 05:48:00,54.9,52.3,29.90,SSE,166,0.0,0.0,91,0.00,,CLR,0.00,VWS V14.01,2013-05-24 09:48:00,
2013-05-24 05:53:00,54.6,52.3,29.90,SSE,166,0.0,0.0,92,0.00,,CLR,0.00,VWS V14.01,2013-05-24 09:53:00,
2013-05-24 05:58:00,54.3,52.0,29.90,SSE,166,0.0,0.0,92,0.00,,CLR,0.00,VWS V14.01,2013-05-24 09:58:00,
2013-05-24 06:03:00,54.1,52.1,29.90,SSE,166,0.0,0.0,93,0.00,,CLR,0.00,VWS V14.01,2013-05-24 10:03:00,
2013-05-24 06:08:00,53.8,51.8,29.90,SSE,163,0.0,1.0,93,0.00,,CLR,0.00,VWS V14.01,2013-05-24 10:08:00,
2013-05-24 06:13:00,53.6,51.9,29.91,SSE,163,0.0,0.0,94,0.00,,CLR,0.00,VWS V14.01,2013-05-24 10:13:00,
2013-05-24 06:18:00,53.6,51.9,29.91,SSE,166,0.0,0.0,94,0.00,,CLR,0.00,VWS V14.01,2013-05-24 10:18:00,
2013-05-24 06:23:00,53.5,51.8,29.91,SSE,166,0.0,0.0,94,0.00,,CLR,0.00,VWS V14.01,2013-05-24 10:23:00,
2013-05-24 06:28:00,53.4,51.7,29.91,SSE,166,0.0,0.0,94,0.00,,CLR,0.00,VWS V14.01,2013-05-24 10:28:00,
2013-05-24 06:33:00,53.4,52.0,29.91,SSE,166,0.0,0.0,95,0.00,,CLR,0.00,VWS V14.01,2013-05-24 10:33:00,
2013-05-24 06:38:00,53.7,52.3,29.91,South,186,0.0,1.0,95,0.00,,CLR,0.00,VWS V14.01,2013-05-24 10:38:00,
2013-05-24 06:43:00,54.2,52.5,29.91,NE,38,0.0,1.0,94,0.00,,CLR,0.00,VWS V14.01,2013-05-24 10:43:00,
2013-05-24 06:48:00,54.6,52.9,29.91,NE,38,0.0,0.0,94,0.00,,CLR,0.00,VWS V14.01,2013-05-24 10:48:00,
2013-05-24 06:53:00,55.3,53.3,29.91,WSW,240,0.0,0.0,93,0.00,,CLR,0.00,VWS V14.01,2013-05-24 10:53:00,
2013-05-24 06:58:00,56.2,53.9,29.91,WSW,250,0.0,0.0,92,0.00,,CLR,0.00,VWS V14.01,2013-05-24 10:58:00,
2013-05-24 07:03:00,56.7,54.1,29.92,NW,308,0.0,0.0,91,0.00,,CLR,0.00,VWS V14.01,2013-05-24 11:03:00,
2013-05-24 07:08:00,57.5,54.6,29.92,SW,235,0.0,1.0,90,0.00,,CLR,0.00,VWS V14.01,2013-05-24 11:08:00,
2013-05-24 07:13:00,58.2,54.7,29.92,SW,235,0.0,0.0,88,0.00,,CLR,0.00,VWS V14.01,2013-05-24 11:13:00,
2013-05-24 07:18:00,58.8,55.3,29.93,SW,236,0.0,0.0,88,0.00,,CLR,0.00,VWS V14.01,2013-05-24 11:18:00,
2013-05-24 07:23:00,59.5,55.6,29.93,NE,50,0.0,0.0,87,0.00,,CLR,0.00,VWS V14.01,2013-05-24 11:23:00,
2013-05-24 07:28:00,60.1,54.9,29.93,NW,311,3.0,4.0,83,0.00,,CLR,0.00,VWS V14.01,2013-05-24 11:28:00,
2013-05-24 07:33:00,60.4,55.2,29.93,NW,318,3.0,3.0,83,0.00,,CLR,0.00,VWS V14.01,2013-05-24 11:33:00,
2013-05-24 07:38:00,61.3,54.7,29.93,NW,324,4.0,6.0,79,0.00,,CLR,0.00,VWS V14.01,2013-05-24 11:38:00,
2013-05-24 07:43:00,62.4,55.1,29.93,West,270,2.0,5.0,77,0.00,,CLR,0.00,VWS V14.01,2013-05-24 11:43:00,
2013-05-24 07:48:00,63.3,55.2,29.93,NW,318,1.0,1.0,75,0.00,,CLR,0.00,VWS V14.01,2013-05-24 11:48:00,
2013-05-24 07:53:00,64.2,54.6,29.94,NW,316,3.0,4.0,71,0.00,,CLR,0.00,VWS V14.01,2013-05-24 11:53:00,
2013-05-24 07:58:00,64.5,54.9,29.94,NW,309,2.0,4.0,71,0.00,,CLR,0.00,VWS V14.01,2013-05-24 11:58:00,
2013-05-24 08:03:00,64.5,54.9,29.94,NW,314,3.0,6.0,71,0.00,,CLR,0.00,VWS V14.01,2013-05-24 12:03:00,
2013-05-24 08:08:00,64.7,53.9,29.94,NW,323,1.0,5.0,68,0.00,,CLR,0.00,VWS V14.01,2013-05-24 12:08:00,
2013-05-24 08:13:00,65.2,54.4,29.94,WNW,300,8.0,8.0,68,0.00,,CLR,0.00,VWS V14.01,2013-05-24 12:13:00,
2013-05-24 08:18:00,65.3,53.2,29.95,NW,316,4.0,10.0,65,0.00,,CLR,0.00,VWS V14.01,2013-05-24 12:18:00,
2013-05-24 08:23:00,66.0,54.7,29.95,NW,318,3.0,5.0,67,0.00,,CLR,0.00,VWS V14.01,2013-05-24 12:23:00,
2013-05-24 08:28:00,66.1,53.6,29.95,West,271,1.0,11.0,64,0.00,,CLR,0.00,VWS V14.01,2013-05-24 12:28:00,
2013-05-24 08:33:00,66.4,54.3,29.96,NW,322,3.0,3.0,65,0.00,,CLR,0.00,VWS V14.01,2013-05-24 12:33:00,
2013-05-24 08:38:00,66.9,53.5,29.96,WNW,302,6.0,7.0,62,0.00,,CLR,0.00,VWS V14.01,2013-05-24 12:38:00,
2013-05-24 08:43:00,66.8,53.8,29.96,NW,305,6.0,15.0,63,0.00,,CLR,0.00,VWS V14.01,2013-05-24 12:43:00,
2013-05-24 08:48:00,66.2,53.7,29.97,NNW,330,2.0,4.0,64,0.00,,CLR,0.00,VWS V14.01,2013-05-24 12:48:00,
2013-05-24 08:53:00,66.5,54.4,29.97,NW,318,6.0,16.0,65,0.00,,CLR,0.00,VWS V14.01,2013-05-24 12:53:00,
2013-05-24 08:58:00,66.4,53.9,29.97,SE,134,9.0,11.0,64,0.00,,CLR,0.00,VWS V14.01,2013-05-24 12:58:00,
2013-05-24 09:03:00,66.2,54.1,29.98,NNW,330,7.0,13.0,65,0.00,,CLR,0.00,VWS V14.01,2013-05-24 13:03:00,
2013-05-24 09:08:00,66.4,53.9,29.98,NW,305,15.0,16.0,64,0.00,,CLR,0.00,VWS V14.01,2013-05-24 13:08:00,
2013-05-24 09:13:00,66.0,53.1,29.98,NNW,339,15.0,17.0,63,0.00,,CLR,0.00,VWS V14.01,2013-05-24 13:13:00,
2013-05-24 09:18:00,65.5,51.7,29.99,NW,311,7.0,11.0,61,0.00,,CLR,0.00,VWS V14.01,2013-05-24 13:18:00,
2013-05-24 09:23:00,65.3,51.5,30.00,NW,309,8.0,17.0,61,0.00,,SCT065,0.00,VWS V14.01,2013-05-24 13:23:00,
2013-05-24 09:28:00,65.3,50.2,30.01,WNW,297,17.0,17.0,58,0.00,,SCT065,0.00,VWS V14.01,2013-05-24 13:28:00,
2013-05-24 09:33:00,65.1,50.4,30.02,WNW,282,7.0,10.0,59,0.00,,SCT065,0.00,VWS V14.01,2013-05-24 13:33:00,
2013-05-24 09:37:00,65.1,50.0,30.03,NNW,346,11.0,11.0,58,0.00,,SCT065,0.00,VWS V14.01,2013-05-24 13:37:00,
2013-05-24 09:42:00,65.1,50.0,30.04,NW,319,6.0,12.0,58,0.00,,CLR,0.00,VWS V14.01,2013-05-24 13:42:00,
2013-05-24 09:48:00,65.1,48.5,30.05,NNW,328,8.0,17.0,55,0.00,,CLR,0.00,VWS V14.01,2013-05-24 13:48:00,
2013-05-24 09:52:00,64.7,47.2,30.05,NW,312,9.0,17.0,53,0.00,,CLR,0.00,VWS V14.01,2013-05-24 13:52:00,
2013-05-24 09:58:00,64.7,46.2,30.05,NNW,336,5.0,16.0,51,0.00,,CLR,0.00,VWS V14.01,2013-05-24 13:58:00,
2013-05-24 10:03:00,64.7,46.2,30.05,WNW,290,14.0,16.0,51,0.00,,SCT045,0.00,VWS V14.01,2013-05-24 14:03:00,
2013-05-24 10:08:00,64.4,45.4,30.06,North,353,6.0,16.0,50,0.00,,SCT045,0.00,VWS V14.01,2013-05-24 14:08:00,
2013-05-24 10:13:00,64.1,45.1,30.06,NW,314,5.0,12.0,50,0.00,,SCT045,0.00,VWS V14.01,2013-05-24 14:13:00,
2013-05-24 10:17:00,64.0,45.5,30.06,NNW,346,4.0,14.0,51,0.00,,SCT045,0.00,VWS V14.01,2013-05-24 14:17:00,
2013-05-24 10:22:00,64.1,46.6,30.06,NNW,342,5.0,9.0,53,0.00,,BKN065,0.00,VWS V14.01,2013-05-24 14:22:00,
2013-05-24 10:27:00,64.1,45.6,30.07,NW,322,10.0,14.0,51,0.00,,BKN065,0.00,VWS V14.01,2013-05-24 14:27:00,
2013-05-24 10:32:00,64.3,47.3,30.07,WNW,285,13.0,15.0,54,0.00,,BKN065,0.00,VWS V14.01,2013-05-24 14:32:00,
2013-05-24 10:37:00,64.5,45.5,30.08,NW,313,8.0,15.0,50,0.00,,BKN065,0.00,VWS V14.01,2013-05-24 14:37:00,
2013-05-24 10:42:00,64.5,46.5,30.07,NW,309,9.0,15.0,52,0.00,,OVC047,0.00,VWS V14.01,2013-05-24 14:42:00,
2013-05-24 10:47:00,64.3,46.3,30.08,WNW,288,5.0,10.0,52,0.00,,OVC047,0.00,VWS V14.01,2013-05-24 14:47:00,
2013-05-24 10:52:00,63.7,44.7,30.08,NW,309,5.0,11.0,50,0.00,,OVC047,0.00,VWS V14.01,2013-05-24 14:52:00,
2013-05-24 10:57:00,63.7,47.2,30.08,WNW,290,2.0,4.0,55,0.00,,OVC047,0.00,VWS V14.01,2013-05-24 14:57:00,
2013-05-24 11:02:00,63.9,47.4,30.08,NW,307,7.0,8.0,55,0.00,,OVC049,0.00,VWS V14.01,2013-05-24 15:02:00,
2013-05-24 11:07:00,64.0,47.0,30.09,NW,311,7.0,17.0,54,0.00,,OVC049,0.00,VWS V14.01,2013-05-24 15:07:00,
2013-05-24 11:12:00,64.1,47.6,30.09,NNW,330,2.0,8.0,55,0.00,,OVC049,0.00,VWS V14.01,2013-05-24 15:12:00,
2013-05-24 11:17:00,63.9,46.0,30.09,NNW,336,5.0,12.0,52,0.00,,OVC049,0.00,VWS V14.01,2013-05-24 15:17:00,
2013-05-24 11:22:00,63.1,46.2,30.10,NW,322,5.0,9.0,54,0.00,,OVC050,0.00,VWS V14.01,2013-05-24 15:22:00,
2013-05-24 11:27:00,62.5,45.7,30.10,NW,318,3.0,9.0,54,0.00,,OVC050,0.00,VWS V14.01,2013-05-24 15:27:00,
2013-05-24 11:32:00,62.8,46.4,30.10,NNW,336,2.0,6.0,55,0.00,,OVC050,0.00,VWS V14.01,2013-05-24 15:32:00,
2013-05-24 11:37:00,62.8,46.9,30.11,West,281,7.0,9.0,56,0.00,,OVC050,0.00,VWS V14.01,2013-05-24 15:37:00,
2013-05-24 11:42:00,62.9,46.5,30.11,NW,311,3.0,4.0,55,0.00,,OVC043,0.00,VWS V14.01,2013-05-24 15:42:00,
2013-05-24 11:47:00,62.8,45.4,30.11,West,278,7.0,7.0,53,0.00,,OVC043,0.00,VWS V14.01,2013-05-24 15:47:00,
2013-05-24 11:52:00,62.4,45.5,30.11,East,82,2.0,12.0,54,0.00,,OVC043,0.00,VWS V14.01,2013-05-24 15:52:00,
2013-05-24 11:57:00,62.5,46.1,30.11,NW,311,3.0,10.0,55,0.00,,OVC043,0.00,VWS V14.01,2013-05-24 15:57:00,
2013-05-24 12:02:00,62.3,46.4,30.11,NW,324,2.0,9.0,56,0.00,,OVC043,0.00,VWS V14.01,2013-05-24 16:02:00,
2013-05-24 12:07:00,63.2,45.8,30.11,NNW,337,3.0,5.0,53,0.00,,OVC043,0.00,VWS V14.01,2013-05-24 16:07:00,
2013-05-24 12:12:00,64.3,46.8,30.11,North,7,4.0,10.0,53,0.00,,OVC043,0.00,VWS V14.01,2013-05-24 16:12:00,
2013-05-24 12:17:00,64.9,46.4,30.10,NNW,336,5.0,7.0,51,0.00,,OVC043,0.00,VWS V14.01,2013-05-24 16:17:00,
2013-05-24 12:22:00,64.8,45.7,30.11,NW,311,6.0,10.0,50,0.00,,BKN041,0.00,VWS V14.01,2013-05-24 16:22:00,
2013-05-24 12:27:00,65.2,46.6,30.10,NW,307,7.0,8.0,51,0.00,,BKN041,0.00,VWS V14.01,2013-05-24 16:27:00,
2013-05-24 12:32:00,64.4,45.9,30.10,WNW,300,8.0,14.0,51,0.00,,BKN041,0.00,VWS V14.01,2013-05-24 16:32:00,
2013-05-24 12:37:00,64.7,47.2,30.10,WNW,283,5.0,10.0,53,0.00,,BKN041,0.00,VWS V14.01,2013-05-24 16:37:00,
2013-05-24 12:42:00,65.3,46.7,30.10,NW,311,2.0,5.0,51,0.00,,SCT041,0.00,VWS V14.01,2013-05-24 16:42:00,
2013-05-24 12:47:00,64.9,44.8,30.10,North,353,6.0,11.0,48,0.00,,SCT041,0.00,VWS V14.01,2013-05-24 16:47:00,
2013-05-24 12:52:00,65.3,45.1,30.10,NNW,333,10.0,13.0,48,0.00,,SCT041,0.00,VWS V14.01,2013-05-24 16:52:00,
2013-05-24 12:57:00,64.9,44.2,30.10,WNW,302,8.0,11.0,47,0.00,,SCT041,0.00,VWS V14.01,2013-05-24 16:57:00,
2013-05-24 13:02:00,65.0,42.6,30.10,NW,322,12.0,15.0,44,0.00,,CLR,0.00,VWS V14.01,2013-05-24 17:02:00,
2013-05-24 13:07:00,64.8,44.1,30.09,NNW,336,6.0,9.0,47,0.00,,CLR,0.00,VWS V14.01,2013-05-24 17:07:00,
2013-05-24 13:12:00,65.1,43.3,30.09,NW,308,7.0,15.0,45,0.00,,CLR,0.00,VWS V14.01,2013-05-24 17:12:00,
2013-05-24 13:17:00,65.5,43.6,30.09,WNW,284,12.0,14.0,45,0.00,,CLR,0.00,VWS V14.01,2013-05-24 17:17:00,
2013-05-24 13:22:00,65.5,43.6,30.10,NNW,328,9.0,9.0,45,0.00,,CLR,0.00,VWS V14.01,2013-05-24 17:22:00,
2013-05-24 13:27:00,65.9,42.8,30.10,NNW,327,4.0,13.0,43,0.00,,CLR,0.00,VWS V14.01,2013-05-24 17:27:00,
2013-05-24 13:32:00,66.2,42.5,30.10,NW,316,2.0,8.0,42,0.00,,CLR,0.00,VWS V14.01,2013-05-24 17:32:00,
2013-05-24 13:37:00,67.2,45.2,30.10,NNW,333,4.0,9.0,45,0.00,,CLR,0.00,VWS V14.01,2013-05-24 17:37:00,
2013-05-24 13:42:00,67.8,43.3,30.10,NNW,342,3.0,8.0,41,0.00,,CLR,0.00,VWS V14.01,2013-05-24 17:42:00,
2013-05-24 13:47:00,67.8,43.3,30.09,NNE,30,10.0,10.0,41,0.00,,CLR,0.00,VWS V14.01,2013-05-24 17:47:00,
2013-05-24 13:52:00,67.7,42.5,30.10,WNW,295,7.0,9.0,40,0.00,,CLR,0.00,VWS V14.01,2013-05-24 17:52:00,
2013-05-24 13:57:00,67.8,42.6,30.09,North,349,4.0,9.0,40,0.00,,CLR,0.00,VWS V14.01,2013-05-24 17:57:00,
2013-05-24 14:02:00,68.0,41.5,30.09,WNW,294,13.0,20.0,38,0.00,,CLR,0.00,VWS V14.01,2013-05-24 18:02:00,
2013-05-24 14:07:00,68.0,37.8,30.09,NW,322,5.0,13.0,33,0.00,,CLR,0.00,VWS V14.01,2013-05-24 18:07:00,
2013-05-24 14:12:00,68.4,39.0,30.09,West,280,9.0,10.0,34,0.00,,CLR,0.00,VWS V14.01,2013-05-24 18:12:00,
2013-05-24 14:17:00,68.1,37.9,30.09,NNE,12,6.0,6.0,33,0.00,,CLR,0.00,VWS V14.01,2013-05-24 18:17:00,
2013-05-24 14:22:00,68.4,41.1,30.09,NW,319,6.0,10.0,37,0.00,,CLR,0.00,VWS V14.01,2013-05-24 18:22:00,
2013-05-24 14:27:00,68.9,40.9,30.09,NW,309,4.0,9.0,36,0.00,,CLR,0.00,VWS V14.01,2013-05-24 18:27:00,
2013-05-24 14:32:00,68.9,39.4,30.09,NW,312,3.0,8.0,34,0.00,,CLR,0.00,VWS V14.01,2013-05-24 18:32:00,
2013-05-24 14:37:00,69.0,39.5,30.09,NW,307,3.0,4.0,34,0.00,,CLR,0.00,VWS V14.01,2013-05-24 18:37:00,
2013-05-24 14:42:00,69.4,39.8,30.09,NNW,331,2.0,7.0,34,0.00,,CLR,0.00,VWS V14.01,2013-05-24 18:42:00,
2013-05-24 14:47:00,70.1,39.7,30.10,North,1,5.0,10.0,33,0.00,,CLR,0.00,VWS V14.01,2013-05-24 18:47:00,
2013-05-24 14:52:00,69.9,38.7,30.09,NNW,328,3.0,9.0,32,0.00,,CLR,0.00,VWS V14.01,2013-05-24 18:52:00,
2013-05-24 14:57:00,69.8,38.6,30.10,WNW,291,5.0,8.0,32,0.00,,CLR,0.00,VWS V14.01,2013-05-24 18:57:00,
2013-05-24 15:02:00,69.7,40.8,30.09,NW,318,4.0,5.0,35,0.00,,CLR,0.00,VWS V14.01,2013-05-24 19:02:00,
2013-05-24 15:07:00,70.1,40.5,30.09,WNW,287,5.0,8.0,34,0.00,,CLR,0.00,VWS V14.01,2013-05-24 19:07:00,
2013-05-24 15:12:00,70.0,40.4,30.09,North,1,6.0,8.0,34,0.00,,CLR,0.00,VWS V14.01,2013-05-24 19:12:00,
2013-05-24 15:17:00,70.1,41.2,30.09,NNE,19,4.0,7.0,35,0.00,,CLR,0.00,VWS V14.01,2013-05-24 19:17:00,
2013-05-24 15:22:00,70.1,41.2,30.09,NW,318,4.0,5.0,35,0.00,,CLR,0.00,VWS V14.01,2013-05-24 19:22:00,
2013-05-24 15:27:00,69.9,37.1,30.09,West,263,11.0,12.0,30,0.00,,CLR,0.00,VWS V14.01,2013-05-24 19:27:00,
2013-05-24 15:32:00,70.1,39.7,30.09,WNW,294,5.0,5.0,33,0.00,,CLR,0.00,VWS V14.01,2013-05-24 19:32:00,
2013-05-24 15:37:00,69.9,35.3,30.09,NNW,328,9.0,18.0,28,0.00,,CLR,0.00,VWS V14.01,2013-05-24 19:37:00,
2013-05-24 15:42:00,69.7,35.2,30.10,NW,305,10.0,16.0,28,0.00,,CLR,0.00,VWS V14.01,2013-05-24 19:42:00,
2013-05-24 15:47:00,69.5,38.4,30.10,WNW,295,7.0,9.0,32,0.00,,CLR,0.00,VWS V14.01,2013-05-24 19:47:00,
2013-05-24 15:52:00,70.1,39.7,30.10,NW,307,2.0,7.0,33,0.00,,CLR,0.00,VWS V14.01,2013-05-24 19:52:00,
2013-05-24 15:57:00,69.9,39.5,30.10,North,5,6.0,9.0,33,0.00,,CLR,0.00,VWS V14.01,2013-05-24 19:57:00,
2013-05-24 16:02:00,69.9,38.7,30.09,NW,318,5.0,6.0,32,0.00,,CLR,0.00,VWS V14.01,2013-05-24 20:02:00,
2013-05-24 16:07:00,69.8,38.6,30.10,NW,307,5.0,6.0,32,0.00,,CLR,0.00,VWS V14.01,2013-05-24 20:07:00,
2013-05-24 16:12:00,69.8,39.4,30.10,NNE,18,3.0,9.0,33,0.00,,CLR,0.00,VWS V14.01,2013-05-24 20:12:00,
2013-05-24 16:17:00,70.1,38.9,30.10,NNW,328,4.0,7.0,32,0.00,,CLR,0.00,VWS V14.01,2013-05-24 20:17:00,
2013-05-24 16:22:00,70.2,39.0,30.10,NW,313,9.0,11.0,32,0.00,,CLR,0.00,VWS V14.01,2013-05-24 20:22:00,
2013-05-24 16:27:00,70.2,40.5,30.10,NNW,330,5.0,7.0,34,0.00,,CLR,0.00,VWS V14.01,2013-05-24 20:27:00,
2013-05-24 16:32:00,70.0,37.2,30.10,North,356,4.0,6.0,30,0.00,,CLR,0.00,VWS V14.01,2013-05-24 20:32:00,
2013-05-24 16:37:00,70.0,38.0,30.10,NW,318,4.0,7.0,31,0.00,,CLR,0.00,VWS V14.01,2013-05-24 20:37:00,
2013-05-24 16:42:00,70.0,38.0,30.10,NNW,336,4.0,4.0,31,0.00,,CLR,0.00,VWS V14.01,2013-05-24 20:42:00,
2013-05-24 16:47:00,70.0,39.6,30.10,NNE,19,14.0,14.0,33,0.00,,CLR,0.00,VWS V14.01,2013-05-24 20:47:00,
2013-05-24 16:52:00,69.6,37.7,30.10,NW,311,2.0,12.0,31,0.00,,CLR,0.00,VWS V14.01,2013-05-24 20:52:00,
2013-05-24 16:57:00,69.7,38.5,30.10,NW,321,11.0,11.0,32,0.00,,CLR,0.00,VWS V14.01,2013-05-24 20:57:00,
2013-05-24 17:02:00,69.4,37.5,30.10,NW,321,3.0,12.0,31,0.00,,CLR,0.00,VWS V14.01,2013-05-24 21:02:00,
2013-05-24 17:07:00,69.1,37.2,30.10,NNW,342,10.0,11.0,31,0.00,,CLR,0.00,VWS V14.01,2013-05-24 21:07:00,
2013-05-24 17:12:00,68.9,36.2,30.10,NW,307,10.0,16.0,30,0.00,,CLR,0.00,VWS V14.01,2013-05-24 21:12:00,
2013-05-24 17:17:00,68.7,36.9,30.10,WNW,300,11.0,12.0,31,0.00,,CLR,0.00,VWS V14.01,2013-05-24 21:17:00,
2013-05-24 17:22:00,69.0,37.1,30.10,NNE,25,7.0,12.0,31,0.00,,CLR,0.00,VWS V14.01,2013-05-24 21:22:00,
2013-05-24 17:27:00,69.0,37.1,30.11,NW,315,8.0,10.0,31,0.00,,CLR,0.00,VWS V14.01,2013-05-24 21:27:00,
2013-05-24 17:32:00,68.8,36.1,30.11,WNW,295,9.0,16.0,30,0.00,,CLR,0.00,VWS V14.01,2013-05-24 21:32:00,
2013-05-24 17:37:00,68.8,36.1,30.11,NW,322,6.0,13.0,30,0.00,,CLR,0.00,VWS V14.01,2013-05-24 21:37:00,
2013-05-24 17:42:00,68.9,37.0,30.10,WNW,302,7.0,12.0,31,0.00,,CLR,0.00,VWS V14.01,2013-05-24 21:42:00,
2013-05-24 17:47:00,68.9,37.8,30.10,West,277,8.0,13.0,32,0.00,,CLR,0.00,VWS V14.01,2013-05-24 21:47:00,
2013-05-24 17:52:00,68.8,38.5,30.10,WNW,297,8.0,11.0,33,0.00,,CLR,0.00,VWS V14.01,2013-05-24 21:52:00,
2013-05-24 17:57:00,68.9,37.0,30.10,WNW,302,11.0,18.0,31,0.00,,CLR,0.00,VWS V14.01,2013-05-24 21:57:00,
2013-05-24 18:02:00,68.6,38.4,30.10,WNW,300,6.0,10.0,33,0.00,,CLR,0.00,VWS V14.01,2013-05-24 22:02:00,
2013-05-24 18:07:00,68.6,39.1,30.11,NNW,330,4.0,10.0,34,0.00,,CLR,0.00,VWS V14.01,2013-05-24 22:07:00,
2013-05-24 18:12:00,68.2,38.0,30.11,NW,324,10.0,15.0,33,0.00,,CLR,0.00,VWS V14.01,2013-05-24 22:12:00,
2013-05-24 18:17:00,68.2,38.8,30.11,West,280,8.0,13.0,34,0.00,,CLR,0.00,VWS V14.01,2013-05-24 22:17:00,
2013-05-24 18:22:00,68.1,38.7,30.11,NE,46,3.0,7.0,34,0.00,,CLR,0.00,VWS V14.01,2013-05-24 22:22:00,
2013-05-24 18:27:00,68.0,38.6,30.11,NW,313,3.0,10.0,34,0.00,,CLR,0.00,VWS V14.01,2013-05-24 22:27:00,
2013-05-24 18:32:00,68.0,38.6,30.11,NW,307,10.0,10.0,34,0.00,,CLR,0.00,VWS V14.01,2013-05-24 22:32:00,
2013-05-24 18:37:00,67.8,39.2,30.11,NW,324,10.0,11.0,35,0.00,,CLR,0.00,VWS V14.01,2013-05-24 22:37:00,
2013-05-24 18:42:00,67.7,37.6,30.11,NW,316,10.0,16.0,33,0.00,,CLR,0.00,VWS V14.01,2013-05-24 22:42:00,
2013-05-24 18:47:00,67.5,37.4,30.11,NW,314,8.0,15.0,33,0.00,,CLR,0.00,VWS V14.01,2013-05-24 22:47:00,
2013-05-24 18:52:00,67.3,37.2,30.11,NNE,27,7.0,13.0,33,0.00,,CLR,0.00,VWS V14.01,2013-05-24 22:52:00,
2013-05-24 18:57:00,67.1,37.1,30.11,NNW,328,7.0,14.0,33,0.00,,CLR,0.00,VWS V14.01,2013-05-24 22:57:00,
2013-05-24 19:02:00,66.8,36.8,30.12,NW,311,13.0,17.0,33,0.00,,CLR,0.00,VWS V14.01,2013-05-24 23:02:00,
2013-05-24 19:07:00,66.7,38.2,30.12,NW,308,6.0,7.0,35,0.00,,CLR,0.00,VWS V14.01,2013-05-24 23:07:00,
2013-05-24 19:12:00,66.7,38.2,30.12,NW,305,12.0,12.0,35,0.00,,CLR,0.00,VWS V14.01,2013-05-24 23:12:00,
2013-05-24 19:17:00,66.8,38.3,30.12,WNW,294,6.0,7.0,35,0.00,,CLR,0.00,VWS V14.01,2013-05-24 23:17:00,
2013-05-24 19:22:00,66.6,37.4,30.12,NNW,342,3.0,8.0,34,0.00,,CLR,0.00,VWS V14.01,2013-05-24 23:22:00,
2013-05-24 19:27:00,66.3,37.8,30.12,NW,321,2.0,8.0,35,0.00,,CLR,0.00,VWS V14.01,2013-05-24 23:27:00,
2013-05-24 19:32:00,66.2,38.5,30.13,WNW,295,4.0,6.0,36,0.00,,CLR,0.00,VWS V14.01,2013-05-24 23:32:00,
2013-05-24 19:37:00,66.2,38.5,30.13,NNW,330,1.0,4.0,36,0.00,,CLR,0.00,VWS V14.01,2013-05-24 23:37:00,
2013-05-24 19:42:00,66.3,40.0,30.14,NW,314,0.0,2.0,38,0.00,,CLR,0.00,VWS V14.01,2013-05-24 23:42:00,
2013-05-24 19:47:00,66.4,39.4,30.14,NW,312,1.0,2.0,37,0.00,,CLR,0.00,VWS V14.01,2013-05-24 23:47:00,
2013-05-24 19:52:00,66.7,41.0,30.14,WNW,294,0.0,0.0,39,0.00,,CLR,0.00,VWS V14.01,2013-05-24 23:52:00,
2013-05-24 19:57:00,66.5,41.5,30.14,WNW,294,0.0,1.0,40,0.00,,CLR,0.00,VWS V14.01,2013-05-24 23:57:00,
2013-05-24 20:02:00,66.3,40.6,30.14,WNW,294,0.0,0.0,39,0.00,,CLR,0.00,VWS V14.01,2013-05-25 00:02:00,
2013-05-24 20:07:00,65.8,43.3,30.14,WNW,293,1.0,1.0,44,0.00,,CLR,0.00,VWS V14.01,2013-05-25 00:07:00,
2013-05-24 20:12:00,64.9,43.7,30.14,WSW,238,1.0,1.0,46,0.00,,CLR,0.00,VWS V14.01,2013-05-25 00:12:00,
2013-05-24 20:17:00,63.7,42.5,30.14,SSW,212,0.0,0.0,46,0.00,,CLR,0.00,VWS V14.01,2013-05-25 00:17:00,
2013-05-24 20:22:00,62.5,40.9,30.15,NW,316,4.0,4.0,45,0.00,,CLR,0.00,VWS V14.01,2013-05-25 00:22:00,
2013-05-24 20:27:00,61.9,43.1,30.15,ENE,61,0.0,0.0,50,0.00,,CLR,0.00,VWS V14.01,2013-05-25 00:27:00,
2013-05-24 20:32:00,60.9,41.1,30.15,ENE,61,0.0,0.0,48,0.00,,CLR,0.00,VWS V14.01,2013-05-25 00:32:00,
2013-05-24 20:37:00,59.8,44.1,30.15,ENE,61,0.0,0.0,56,0.00,,CLR,0.00,VWS V14.01,2013-05-25 00:37:00,
2013-05-24 20:42:00,58.8,45.0,30.15,ENE,61,0.0,0.0,60,0.00,,CLR,0.00,VWS V14.01,2013-05-25 00:42:00,
2013-05-24 20:47:00,57.9,45.4,30.15,NE,43,0.0,1.0,63,0.00,,CLR,0.00,VWS V14.01,2013-05-25 00:47:00,
2013-05-24 20:52:00,56.9,46.8,30.16,NE,43,0.0,0.0,69,0.00,,CLR,0.00,VWS V14.01,2013-05-25 00:52:00,
2013-05-24 20:57:00,56.1,46.1,30.16,NE,43,0.0,1.0,69,0.00,,CLR,0.00,VWS V14.01,2013-05-25 00:57:00,
2013-05-24 21:02:00,55.7,45.3,30.16,NE,43,0.0,0.0,68,0.00,,CLR,0.00,VWS V14.01,2013-05-25 01:02:00,
2013-05-24 21:07:00,55.5,44.3,30.16,NE,43,0.0,1.0,66,0.00,,CLR,0.00,VWS V14.01,2013-05-25 01:07:00,
2013-05-24 21:12:00,55.3,44.5,30.16,NE,43,0.0,0.0,67,0.00,,CLR,0.00,VWS V14.01,2013-05-25 01:12:00,
2013-05-24 21:17:00,54.9,45.7,30.17,NE,56,0.0,0.0,71,0.00,,CLR,0.00,VWS V14.01,2013-05-25 01:17:00,
2013-05-24 21:22:00,54.2,45.0,30.17,SE,129,0.0,1.0,71,0.00,,CLR,0.00,VWS V14.01,2013-05-25 01:22:00,
2013-05-24 21:27:00,53.4,43.5,30.17,SSE,148,0.0,0.0,69,0.00,,CLR,0.00,VWS V14.01,2013-05-25 01:27:00,
2013-05-24 21:32:00,53.0,43.5,30.17,SSE,148,0.0,0.0,70,0.00,,CLR,0.00,VWS V14.01,2013-05-25 01:32:00,
2013-05-24 21:37:00,52.5,43.0,30.17,SSE,148,0.0,0.0,70,0.00,,CLR,0.00,VWS V14.01,2013-05-25 01:37:00,
2013-05-24 21:42:00,52.1,43.0,30.18,SSE,148,0.0,1.0,71,0.00,,CLR,0.00,VWS V14.01,2013-05-25 01:42:00,
2013-05-24 21:47:00,51.9,42.8,30.18,SSE,150,0.0,0.0,71,0.00,,CLR,0.00,VWS V14.01,2013-05-25 01:47:00,
2013-05-24 21:52:00,51.7,43.7,30.18,SSE,157,0.0,2.0,74,0.00,,CLR,0.00,VWS V14.01,2013-05-25 01:52:00,
2013-05-24 21:57:00,51.4,43.0,30.18,SSE,153,1.0,1.0,73,0.00,,CLR,0.00,VWS V14.01,2013-05-25 01:57:00,
2013-05-24 22:02:00,51.1,43.5,30.18,SE,145,0.0,1.0,75,0.00,,CLR,0.00,VWS V14.01,2013-05-25 02:02:00,
2013-05-24 22:07:00,50.7,43.4,30.19,SE,146,0.0,0.0,76,0.00,,CLR,0.00,VWS V14.01,2013-05-25 02:07:00,
2013-05-24 22:12:00,50.4,43.8,30.19,SE,145,0.0,0.0,78,0.00,,CLR,0.00,VWS V14.01,2013-05-25 02:12:00,
2013-05-24 22:17:00,50.1,43.8,30.19,North,359,0.0,1.0,79,0.00,,CLR,0.00,VWS V14.01,2013-05-25 02:17:00,
2013-05-24 22:22:00,50.0,44.1,30.19,North,358,0.0,0.0,80,0.00,,CLR,0.00,VWS V14.01,2013-05-25 02:22:00,
2013-05-24 22:27:00,49.9,44.6,30.19,North,359,0.0,0.0,82,0.00,,CLR,0.00,VWS V14.01,2013-05-25 02:27:00,
2013-05-24 22:32:00,49.8,44.5,30.20,West,269,0.0,0.0,82,0.00,,CLR,0.00,VWS V14.01,2013-05-25 02:32:00,
2013-05-24 22:37:00,49.3,44.0,30.20,SSE,160,0.0,1.0,82,0.00,,CLR,0.00,VWS V14.01,2013-05-25 02:37:00,
2013-05-24 22:42:00,48.8,44.2,30.20,SSE,153,0.0,0.0,84,0.00,,CLR,0.00,VWS V14.01,2013-05-25 02:42:00,
2013-05-24 22:47:00,48.4,43.5,30.20,SSE,158,0.0,0.0,83,0.00,,CLR,0.00,VWS V14.01,2013-05-25 02:47:00,
2013-05-24 22:52:00,48.0,43.1,30.20,South,184,1.0,1.0,83,0.00,,CLR,0.00,VWS V14.01,2013-05-25 02:52:00,
2013-05-24 22:57:00,47.9,42.7,30.20,SSE,163,0.0,1.0,82,0.00,,CLR,0.00,VWS V14.01,2013-05-25 02:57:00,
2013-05-24 23:02:00,47.9,42.7,30.20,SSE,163,0.0,0.0,82,0.00,,CLR,0.00,VWS V14.01,2013-05-25 03:02:00,
2013-05-24 23:07:00,47.7,42.8,30.20,SSE,163,0.0,0.0,83,0.00,,CLR,0.00,VWS V14.01,2013-05-25 03:07:00,
2013-05-24 23:12:00,47.7,43.1,30.20,SSE,163,0.0,0.0,84,0.00,,CLR,0.00,VWS V14.01,2013-05-25 03:12:00,
2013-05-24 23:17:00,47.8,43.8,30.20,WNW,287,0.0,0.0,86,0.00,,CLR,0.00,VWS V14.01,2013-05-25 03:17:00,
2013-05-24 23:22:00,47.9,43.6,30.20,WNW,287,0.0,0.0,85,0.00,,CLR,0.00,VWS V14.01,2013-05-25 03:22:00,
2013-05-24 23:27:00,47.5,43.2,30.21,WNW,283,0.0,1.0,85,0.00,,CLR,0.00,VWS V14.01,2013-05-25 03:27:00,
2013-05-24 23:32:00,47.2,43.5,30.21,SW,227,0.0,1.0,87,0.00,,CLR,0.00,VWS V14.01,2013-05-25 03:32:00,
2013-05-24 23:37:00,46.9,42.9,30.21,SSE,153,0.0,0.0,86,0.00,,CLR,0.00,VWS V14.01,2013-05-25 03:37:00,
2013-05-24 23:42:00,46.7,43.0,30.21,SW,217,0.0,0.0,87,0.00,,CLR,0.00,VWS V14.01,2013-05-25 03:42:00,
2013-05-24 23:47:00,46.3,42.7,30.22,SW,219,0.0,0.0,87,0.00,,CLR,0.00,VWS V14.01,2013-05-25 03:47:00,
2013-05-24 23:52:00,46.0,43.0,30.22,SSE,149,0.0,0.0,89,0.00,,CLR,0.00,VWS V14.01,2013-05-25 03:52:00,
2013-05-24 23:57:00,45.7,42.7,30.22,SSE,148,0.0,0.0,89,0.00,,CLR,0.00,VWS V14.01,2013-05-25 03:57:00,